Year,Month,Day,Hour,Minute,Value (Times are PST for temperature in C)
2015,06,27,00,00,18.90
2015,06,27,00,01,18.90
2015,06,27,00,02,18.90
2015,06,27,00,03,18.90
2015,06,27,00,04,18.90
2015,06,27,00,05,18.80
2015,06,27,00,06,18.80
2015,06,27,00,07,18.80
2015,06,27,00,08,18.80
2015,06,27,00,09,18.80
2015,06,27,00,10,18.80
2015,06,27,00,11,18.70
2015,06,27,00,12,18.70
2015,06,27,00,13,18.70
2015,06,27,00,14,18.70
2015,06,27,00,15,18.70
2015,06,27,00,16,18.70
2015,06,27,00,17,18.70
2015,06,27,00,18,18.70
2015,06,27,00,19,18.70
2015,06,27,00,20,18.70
2015,06,27,00,21,18.60
2015,06,27,00,22,18.60
2015,06,27,00,23,18.60
2015,06,27,00,24,18.60
2015,06,27,00,25,18.60
2015,06,27,00,26,18.60
2015,06,27,00,27,18.60
2015,06,27,00,28,18.60
2015,06,27,00,29,18.60
2015,06,27,00,30,18.60
2015,06,27,00,31,18.60
2015,06,27,00,32,18.60
2015,06,27,00,33,18.50
2015,06,27,00,34,18.50
2015,06,27,00,35,18.50
2015,06,27,00,36,18.50
2015,06,27,00,37,18.40
2015,06,27,00,38,18.40
2015,06,27,00,39,18.40
2015,06,27,00,40,18.40
2015,06,27,00,41,18.30
2015,06,27,00,42,18.30
2015,06,27,00,43,18.30
2015,06,27,00,44,18.20
2015,06,27,00,45,18.20
2015,06,27,00,46,18.20
2015,06,27,00,47,18.20
2015,06,27,00,48,18.20
2015,06,27,00,49,18.20
2015,06,27,00,50,18.20
2015,06,27,00,51,18.20
2015,06,27,00,52,18.20
2015,06,27,00,53,18.20
2015,06,27,00,54,18.10
2015,06,27,00,55,18.10
2015,06,27,00,56,18.10
2015,06,27,00,57,18.10
2015,06,27,00,58,18.10
2015,06,27,00,59,18.00
2015,06,27,01,00,17.90
2015,06,27,01,01,17.90
2015,06,27,01,02,17.90
2015,06,27,01,03,17.90
2015,06,27,01,04,17.90
2015,06,27,01,05,17.90
2015,06,27,01,06,17.90
2015,06,27,01,07,17.90
2015,06,27,01,08,17.90
2015,06,27,01,09,17.80
2015,06,27,01,10,17.80
2015,06,27,01,11,17.80
2015,06,27,01,12,17.80
2015,06,27,01,13,17.80
2015,06,27,01,14,17.70
2015,06,27,01,15,17.70
2015,06,27,01,16,17.70
2015,06,27,01,17,17.70
2015,06,27,01,18,17.70
2015,06,27,01,19,17.70
2015,06,27,01,20,17.70
2015,06,27,01,21,17.70
2015,06,27,01,22,17.60
2015,06,27,01,23,17.60
2015,06,27,01,24,17.60
2015,06,27,01,25,17.60
2015,06,27,01,26,17.70
2015,06,27,01,27,17.70
2015,06,27,01,28,17.70
2015,06,27,01,29,17.60
2015,06,27,01,30,17.60
2015,06,27,01,31,17.60
2015,06,27,01,32,17.60
2015,06,27,01,33,17.60
2015,06,27,01,34,17.60
2015,06,27,01,35,17.60
2015,06,27,01,36,17.60
2015,06,27,01,37,17.60
2015,06,27,01,38,17.60
2015,06,27,01,39,17.60
2015,06,27,01,40,17.60
2015,06,27,01,41,17.60
2015,06,27,01,42,17.60
2015,06,27,01,43,17.60
2015,06,27,01,44,17.60
2015,06,27,01,45,17.60
2015,06,27,01,46,17.60
2015,06,27,01,47,17.60
2015,06,27,01,48,17.60
2015,06,27,01,49,17.60
2015,06,27,01,50,17.60
2015,06,27,01,51,17.60
2015,06,27,01,52,17.60
2015,06,27,01,53,17.60
2015,06,27,01,54,17.60
2015,06,27,01,55,17.60
2015,06,27,01,56,17.50
2015,06,27,01,57,17.50
2015,06,27,01,58,17.50
2015,06,27,01,59,17.40
2015,06,27,02,00,17.40
2015,06,27,02,01,17.40
2015,06,27,02,02,17.30
2015,06,27,02,03,17.30
2015,06,27,02,04,17.30
2015,06,27,02,05,17.30
2015,06,27,02,06,17.30
2015,06,27,02,07,17.30
2015,06,27,02,08,17.30
2015,06,27,02,09,17.30
2015,06,27,02,10,17.30
2015,06,27,02,11,17.30
2015,06,27,02,12,17.30
2015,06,27,02,13,17.30
2015,06,27,02,14,17.30
2015,06,27,02,15,17.30
2015,06,27,02,16,17.30
2015,06,27,02,17,17.30
2015,06,27,02,18,17.30
2015,06,27,02,19,17.20
2015,06,27,02,20,17.20
2015,06,27,02,21,17.20
2015,06,27,02,22,17.20
2015,06,27,02,23,17.20
2015,06,27,02,24,17.20
2015,06,27,02,25,17.20
2015,06,27,02,26,17.20
2015,06,27,02,27,17.20
2015,06,27,02,28,17.20
2015,06,27,02,29,17.20
2015,06,27,02,30,17.20
2015,06,27,02,31,17.10
2015,06,27,02,32,17.10
2015,06,27,02,33,17.10
2015,06,27,02,34,17.10
2015,06,27,02,35,17.10
2015,06,27,02,36,17.10
2015,06,27,02,37,17.10
2015,06,27,02,38,17.00
2015,06,27,02,39,17.00
2015,06,27,02,40,17.00
2015,06,27,02,41,17.00
2015,06,27,02,42,17.00
2015,06,27,02,43,17.00
2015,06,27,02,44,17.00
2015,06,27,02,45,17.00
2015,06,27,02,46,17.00
2015,06,27,02,47,17.00
2015,06,27,02,48,16.90
2015,06,27,02,49,16.90
2015,06,27,02,50,16.90
2015,06,27,02,51,16.90
2015,06,27,02,52,16.90
2015,06,27,02,53,16.90
2015,06,27,02,54,16.90
2015,06,27,02,55,16.90
2015,06,27,02,56,16.90
2015,06,27,02,57,16.90
2015,06,27,02,58,16.90
2015,06,27,02,59,16.90
2015,06,27,03,00,16.90
2015,06,27,03,01,16.80
2015,06,27,03,02,16.80
2015,06,27,03,03,16.80
2015,06,27,03,04,16.80
2015,06,27,03,05,16.80
2015,06,27,03,06,16.80
2015,06,27,03,07,16.80
2015,06,27,03,08,16.80
2015,06,27,03,09,16.80
2015,06,27,03,10,16.80
2015,06,27,03,11,16.80
2015,06,27,03,12,16.80
2015,06,27,03,13,16.80
2015,06,27,03,14,16.80
2015,06,27,03,15,16.80
2015,06,27,03,16,16.80
2015,06,27,03,17,16.80
2015,06,27,03,18,16.80
2015,06,27,03,19,16.80
2015,06,27,03,20,16.80
2015,06,27,03,21,16.80
2015,06,27,03,22,16.80
2015,06,27,03,23,16.80
2015,06,27,03,24,16.80
2015,06,27,03,25,16.80
2015,06,27,03,26,16.80
2015,06,27,03,27,16.80
2015,06,27,03,28,16.80
2015,06,27,03,29,16.80
2015,06,27,03,30,16.80
2015,06,27,03,31,16.80
2015,06,27,03,32,16.80
2015,06,27,03,33,16.80
2015,06,27,03,34,16.70
2015,06,27,03,35,16.70
2015,06,27,03,36,16.70
2015,06,27,03,37,16.70
2015,06,27,03,38,16.70
2015,06,27,03,39,16.70
2015,06,27,03,40,16.70
2015,06,27,03,41,16.70
2015,06,27,03,42,16.60
2015,06,27,03,43,16.60
2015,06,27,03,44,16.60
2015,06,27,03,45,16.60
2015,06,27,03,46,16.60
2015,06,27,03,47,16.60
2015,06,27,03,48,16.60
2015,06,27,03,49,16.60
2015,06,27,03,50,16.60
2015,06,27,03,51,16.50
2015,06,27,03,52,16.40
2015,06,27,03,53,16.40
2015,06,27,03,54,16.40
2015,06,27,03,55,16.40
2015,06,27,03,56,16.40
2015,06,27,03,57,16.40
2015,06,27,03,58,16.40
2015,06,27,03,59,16.40
2015,06,27,04,00,16.40
2015,06,27,04,01,16.40
2015,06,27,04,02,16.30
2015,06,27,04,03,16.30
2015,06,27,04,04,16.30
2015,06,27,04,05,16.30
2015,06,27,04,06,16.30
2015,06,27,04,07,16.30
2015,06,27,04,08,16.30
2015,06,27,04,09,16.30
2015,06,27,04,10,16.20
2015,06,27,04,11,16.20
2015,06,27,04,12,16.20
2015,06,27,04,13,16.20
2015,06,27,04,14,16.20
2015,06,27,04,15,16.20
2015,06,27,04,16,16.10
2015,06,27,04,17,16.10
2015,06,27,04,18,16.10
2015,06,27,04,19,16.10
2015,06,27,04,20,16.10
2015,06,27,04,21,16.10
2015,06,27,04,22,16.10
2015,06,27,04,23,16.10
2015,06,27,04,24,16.10
2015,06,27,04,25,16.10
2015,06,27,04,26,16.10
2015,06,27,04,27,16.10
2015,06,27,04,28,16.10
2015,06,27,04,29,16.10
2015,06,27,04,30,16.00
2015,06,27,04,31,15.90
2015,06,27,04,32,15.90
2015,06,27,04,33,15.90
2015,06,27,04,34,15.90
2015,06,27,04,35,15.90
2015,06,27,04,36,15.90
2015,06,27,04,37,15.90
2015,06,27,04,38,15.90
2015,06,27,04,39,15.90
2015,06,27,04,40,15.90
2015,06,27,04,41,15.90
2015,06,27,04,42,15.90
2015,06,27,04,43,15.90
2015,06,27,04,44,15.80
2015,06,27,04,45,15.80
2015,06,27,04,46,15.80
2015,06,27,04,47,15.80
2015,06,27,04,48,15.80
2015,06,27,04,49,15.80
2015,06,27,04,50,15.80
2015,06,27,04,51,15.80
2015,06,27,04,52,15.90
2015,06,27,04,53,15.90
2015,06,27,04,54,15.90
2015,06,27,04,55,15.80
2015,06,27,04,56,15.80
2015,06,27,04,57,15.80
2015,06,27,04,58,15.80
2015,06,27,04,59,15.80
2015,06,27,05,00,15.80
2015,06,27,05,01,15.80
2015,06,27,05,02,15.80
2015,06,27,05,03,15.80
2015,06,27,05,04,15.80
2015,06,27,05,05,15.80
2015,06,27,05,06,15.80
2015,06,27,05,07,15.80
2015,06,27,05,08,15.80
2015,06,27,05,09,15.80
2015,06,27,05,10,15.80
2015,06,27,05,11,15.80
2015,06,27,05,12,15.80
2015,06,27,05,13,15.80
2015,06,27,05,14,15.80
2015,06,27,05,15,15.70
2015,06,27,05,16,15.70
2015,06,27,05,17,15.70
2015,06,27,05,18,15.70
2015,06,27,05,19,15.70
2015,06,27,05,20,15.70
2015,06,27,05,21,15.60
2015,06,27,05,22,15.60
2015,06,27,05,23,15.60
2015,06,27,05,24,15.60
2015,06,27,05,25,15.60
2015,06,27,05,26,15.60
2015,06,27,05,27,15.60
2015,06,27,05,28,15.60
2015,06,27,05,29,15.60
2015,06,27,05,30,15.60
2015,06,27,05,31,15.60
2015,06,27,05,32,15.60
2015,06,27,05,33,15.50
2015,06,27,05,34,15.50
2015,06,27,05,35,15.50
2015,06,27,05,36,15.50
2015,06,27,05,37,15.50
2015,06,27,05,38,15.50
2015,06,27,05,39,15.50
2015,06,27,05,40,15.50
2015,06,27,05,41,15.50
2015,06,27,05,42,15.50
2015,06,27,05,43,15.50
2015,06,27,05,44,15.50
2015,06,27,05,45,15.50
2015,06,27,05,46,15.50
2015,06,27,05,47,15.50
2015,06,27,05,48,15.50
2015,06,27,05,49,15.50
2015,06,27,05,50,15.50
2015,06,27,05,51,15.50
2015,06,27,05,52,15.50
2015,06,27,05,53,15.50
2015,06,27,05,54,15.50
2015,06,27,05,55,15.50
2015,06,27,05,56,15.50
2015,06,27,05,57,15.50
2015,06,27,05,58,15.50
2015,06,27,05,59,15.50
2015,06,27,06,00,15.50
2015,06,27,06,01,15.50
2015,06,27,06,02,15.50
2015,06,27,06,03,15.50
2015,06,27,06,04,15.50
2015,06,27,06,05,15.50
2015,06,27,06,06,15.50
2015,06,27,06,07,15.50
2015,06,27,06,08,15.50
2015,06,27,06,09,15.50
2015,06,27,06,10,15.50
2015,06,27,06,11,15.50
2015,06,27,06,12,15.50
2015,06,27,06,13,15.60
2015,06,27,06,14,15.60
2015,06,27,06,15,15.60
2015,06,27,06,16,15.60
2015,06,27,06,17,15.60
2015,06,27,06,18,15.60
2015,06,27,06,19,15.60
2015,06,27,06,20,15.70
2015,06,27,06,21,15.70
2015,06,27,06,22,15.70
2015,06,27,06,23,15.70
2015,06,27,06,24,15.70
2015,06,27,06,25,15.70
2015,06,27,06,26,15.70
2015,06,27,06,27,15.70
2015,06,27,06,28,15.80
2015,06,27,06,29,15.80
2015,06,27,06,30,15.80
2015,06,27,06,31,15.80
2015,06,27,06,32,15.80
2015,06,27,06,33,15.80
2015,06,27,06,34,15.80
2015,06,27,06,35,15.80
2015,06,27,06,36,15.80
2015,06,27,06,37,15.80
2015,06,27,06,38,15.80
2015,06,27,06,39,15.90
2015,06,27,06,40,15.90
2015,06,27,06,41,15.90
2015,06,27,06,42,15.90
2015,06,27,06,43,15.90
2015,06,27,06,44,15.90
2015,06,27,06,45,16.00
2015,06,27,06,46,16.10
2015,06,27,06,47,16.10
2015,06,27,06,48,16.10
2015,06,27,06,49,16.10
2015,06,27,06,50,16.10
2015,06,27,06,51,16.10
2015,06,27,06,52,16.10
2015,06,27,06,53,16.10
2015,06,27,06,54,16.20
2015,06,27,06,55,16.20
2015,06,27,06,56,16.20
2015,06,27,06,57,16.20
2015,06,27,06,58,16.20
2015,06,27,06,59,16.30
2015,06,27,07,00,16.30
2015,06,27,07,01,16.30
2015,06,27,07,02,16.30
2015,06,27,07,03,16.30
2015,06,27,07,04,16.30
2015,06,27,07,05,16.40
2015,06,27,07,06,16.40
2015,06,27,07,07,16.40
2015,06,27,07,08,16.40
2015,06,27,07,09,16.40
2015,06,27,07,10,16.50
2015,06,27,07,11,16.60
2015,06,27,07,12,16.60
2015,06,27,07,13,16.70
2015,06,27,07,14,16.70
2015,06,27,07,15,16.70
2015,06,27,07,16,16.70
2015,06,27,07,17,16.70
2015,06,27,07,18,16.70
2015,06,27,07,19,16.80
2015,06,27,07,20,16.80
2015,06,27,07,21,16.90
2015,06,27,07,22,16.90
2015,06,27,07,23,17.00
2015,06,27,07,24,17.00
2015,06,27,07,25,17.10
2015,06,27,07,26,17.10
2015,06,27,07,27,17.10
2015,06,27,07,28,17.20
2015,06,27,07,29,17.20
2015,06,27,07,30,17.20
2015,06,27,07,31,17.30
2015,06,27,07,32,17.30
2015,06,27,07,33,17.30
2015,06,27,07,34,17.30
2015,06,27,07,35,17.30
2015,06,27,07,36,17.30
2015,06,27,07,37,17.40
2015,06,27,07,38,17.40
2015,06,27,07,39,17.40
2015,06,27,07,40,17.50
2015,06,27,07,41,17.50
2015,06,27,07,42,17.50
2015,06,27,07,43,17.60
2015,06,27,07,44,17.70
2015,06,27,07,45,17.70
2015,06,27,07,46,17.80
2015,06,27,07,47,17.80
2015,06,27,07,48,17.80
2015,06,27,07,49,17.90
2015,06,27,07,50,17.90
2015,06,27,07,51,17.90
2015,06,27,07,52,18.00
2015,06,27,07,53,18.10
2015,06,27,07,54,18.10
2015,06,27,07,55,18.20
2015,06,27,07,56,18.20
2015,06,27,07,57,18.30
2015,06,27,07,58,18.40
2015,06,27,07,59,18.50
2015,06,27,08,00,18.60
2015,06,27,08,01,18.70
2015,06,27,08,02,18.70
2015,06,27,08,03,18.80
2015,06,27,08,04,18.90
2015,06,27,08,05,18.90
2015,06,27,08,06,19.00
2015,06,27,08,07,19.10
2015,06,27,08,08,19.10
2015,06,27,08,09,19.20
2015,06,27,08,10,19.30
2015,06,27,08,11,19.30
2015,06,27,08,12,19.40
2015,06,27,08,13,19.50
2015,06,27,08,14,19.50
2015,06,27,08,15,19.60
2015,06,27,08,16,19.60
2015,06,27,08,17,19.70
2015,06,27,08,18,19.80
2015,06,27,08,19,19.80
2015,06,27,08,20,19.90
2015,06,27,08,21,19.90
2015,06,27,08,22,20.00
2015,06,27,08,23,20.10
2015,06,27,08,24,20.10
2015,06,27,08,25,20.20
2015,06,27,08,26,20.20
2015,06,27,08,27,20.30
2015,06,27,08,28,20.30
2015,06,27,08,29,20.40
2015,06,27,08,30,20.40
2015,06,27,08,31,20.50
2015,06,27,08,32,20.60
2015,06,27,08,33,20.60
2015,06,27,08,34,20.70
2015,06,27,08,35,20.70
2015,06,27,08,36,20.70
2015,06,27,08,37,20.80
2015,06,27,08,38,20.80
2015,06,27,08,39,20.80
2015,06,27,08,40,20.90
2015,06,27,08,41,21.00
2015,06,27,08,42,21.00
2015,06,27,08,43,21.10
2015,06,27,08,44,21.10
2015,06,27,08,45,21.20
2015,06,27,08,46,21.20
2015,06,27,08,47,21.20
2015,06,27,08,48,21.30
2015,06,27,08,49,21.30
2015,06,27,08,50,21.30
2015,06,27,08,51,21.40
2015,06,27,08,52,21.40
2015,06,27,08,53,21.40
2015,06,27,08,54,21.50
2015,06,27,08,55,21.60
2015,06,27,08,56,21.60
2015,06,27,08,57,21.60
2015,06,27,08,58,21.70
2015,06,27,08,59,21.70
2015,06,27,09,00,21.80
2015,06,27,09,01,21.90
2015,06,27,09,02,21.90
2015,06,27,09,03,22.00
2015,06,27,09,04,22.00
2015,06,27,09,05,22.10
2015,06,27,09,06,22.10
2015,06,27,09,07,22.20
2015,06,27,09,08,22.20
2015,06,27,09,09,22.20
2015,06,27,09,10,22.30
2015,06,27,09,11,22.30
2015,06,27,09,12,22.40
2015,06,27,09,13,22.40
2015,06,27,09,14,22.50
2015,06,27,09,15,22.50
2015,06,27,09,16,22.50
2015,06,27,09,17,22.60
2015,06,27,09,18,22.60
2015,06,27,09,19,22.70
2015,06,27,09,20,22.70
2015,06,27,09,21,22.80
2015,06,27,09,22,22.80
2015,06,27,09,23,22.90
2015,06,27,09,24,22.90
2015,06,27,09,25,23.00
2015,06,27,09,26,23.10
2015,06,27,09,27,23.10
2015,06,27,09,28,23.20
2015,06,27,09,29,23.30
2015,06,27,09,30,23.30
2015,06,27,09,31,23.30
2015,06,27,09,32,23.30
2015,06,27,09,33,23.40
2015,06,27,09,34,23.50
2015,06,27,09,35,23.60
2015,06,27,09,36,23.60
2015,06,27,09,37,23.70
2015,06,27,09,38,23.70
2015,06,27,09,39,23.70
2015,06,27,09,40,23.80
2015,06,27,09,41,23.80
2015,06,27,09,42,23.90
2015,06,27,09,43,23.90
2015,06,27,09,44,23.90
2015,06,27,09,45,23.90
2015,06,27,09,46,23.90
2015,06,27,09,47,23.90
2015,06,27,09,48,23.90
2015,06,27,09,49,23.90
2015,06,27,09,50,23.90
2015,06,27,09,51,23.90
2015,06,27,09,52,23.90
2015,06,27,09,53,23.90
2015,06,27,09,54,23.90
2015,06,27,09,55,23.90
2015,06,27,09,56,23.90
2015,06,27,09,57,23.90
2015,06,27,09,58,23.90
2015,06,27,09,59,23.90
2015,06,27,10,00,23.90
2015,06,27,10,01,23.90
2015,06,27,10,02,23.90
2015,06,27,10,03,23.90
2015,06,27,10,04,23.90
2015,06,27,10,05,23.80
2015,06,27,10,06,23.80
2015,06,27,10,07,23.80
2015,06,27,10,08,23.70
2015,06,27,10,09,23.70
2015,06,27,10,10,23.60
2015,06,27,10,11,23.50
2015,06,27,10,12,23.40
2015,06,27,10,13,23.30
2015,06,27,10,14,23.20
2015,06,27,10,15,23.10
2015,06,27,10,16,23.00
2015,06,27,10,17,22.90
2015,06,27,10,18,22.90
2015,06,27,10,19,22.80
2015,06,27,10,20,22.70
2015,06,27,10,21,22.70
2015,06,27,10,22,22.70
2015,06,27,10,23,22.60
2015,06,27,10,24,22.60
2015,06,27,10,25,22.60
2015,06,27,10,26,22.60
2015,06,27,10,27,22.50
2015,06,27,10,28,22.50
2015,06,27,10,29,22.50
2015,06,27,10,30,22.50
2015,06,27,10,31,22.50
2015,06,27,10,32,22.50
2015,06,27,10,33,22.50
2015,06,27,10,34,22.40
2015,06,27,10,35,22.40
2015,06,27,10,36,22.40
2015,06,27,10,37,22.40
2015,06,27,10,38,22.40
2015,06,27,10,39,22.40
2015,06,27,10,40,22.40
2015,06,27,10,41,22.40
2015,06,27,10,42,22.40
2015,06,27,10,43,22.40
2015,06,27,10,44,22.40
2015,06,27,10,45,22.40
2015,06,27,10,46,22.40
2015,06,27,10,47,22.40
2015,06,27,10,48,22.50
2015,06,27,10,49,22.50
2015,06,27,10,50,22.50
2015,06,27,10,51,22.50
2015,06,27,10,52,22.60
2015,06,27,10,53,22.60
2015,06,27,10,54,22.60
2015,06,27,10,55,22.70
2015,06,27,10,56,22.70
2015,06,27,10,57,22.80
2015,06,27,10,58,22.80
2015,06,27,10,59,22.90
2015,06,27,11,00,22.90
2015,06,27,11,01,22.90
2015,06,27,11,02,23.00
2015,06,27,11,03,23.10
2015,06,27,11,04,23.20
2015,06,27,11,05,23.20
2015,06,27,11,06,23.30
2015,06,27,11,07,23.30
2015,06,27,11,08,23.30
2015,06,27,11,09,23.30
2015,06,27,11,10,23.30
2015,06,27,11,11,23.40
2015,06,27,11,12,23.40
2015,06,27,11,13,23.40
2015,06,27,11,14,23.60
2015,06,27,11,15,23.60
2015,06,27,11,16,23.60
2015,06,27,11,17,23.70
2015,06,27,11,18,23.70
2015,06,27,11,19,23.70
2015,06,27,11,20,23.70
2015,06,27,11,21,23.70
2015,06,27,11,22,23.80
2015,06,27,11,23,23.80
2015,06,27,11,24,23.90
2015,06,27,11,25,23.90
2015,06,27,11,26,24.00
2015,06,27,11,27,24.10
2015,06,27,11,28,24.10
2015,06,27,11,29,24.20
2015,06,27,11,30,24.20
2015,06,27,11,31,24.30
2015,06,27,11,32,24.40
2015,06,27,11,33,24.50
2015,06,27,11,34,24.60
2015,06,27,11,35,24.70
2015,06,27,11,36,24.80
2015,06,27,11,37,24.90
2015,06,27,11,38,25.10
2015,06,27,11,39,25.30
2015,06,27,11,40,25.40
2015,06,27,11,41,25.40
2015,06,27,11,42,25.50
2015,06,27,11,43,25.60
2015,06,27,11,44,25.70
2015,06,27,11,45,25.80
2015,06,27,11,46,25.90
2015,06,27,11,47,25.90
2015,06,27,11,48,26.10
2015,06,27,11,49,26.30
2015,06,27,11,50,26.50
2015,06,27,11,51,26.60
2015,06,27,11,52,26.80
2015,06,27,11,53,27.00
2015,06,27,11,54,27.10
2015,06,27,11,55,27.30
2015,06,27,11,56,27.30
2015,06,27,11,57,27.40
2015,06,27,11,58,27.40
2015,06,27,11,59,27.50
2015,06,27,12,00,27.60
2015,06,27,12,01,27.70
2015,06,27,12,02,27.70
2015,06,27,12,03,27.80
2015,06,27,12,04,27.90
2015,06,27,12,05,28.00
2015,06,27,12,06,28.00
2015,06,27,12,07,28.00
2015,06,27,12,08,28.10
2015,06,27,12,09,28.10
2015,06,27,12,10,28.20
2015,06,27,12,11,28.20
2015,06,27,12,12,28.30
2015,06,27,12,13,28.30
2015,06,27,12,14,28.30
2015,06,27,12,15,28.40
2015,06,27,12,16,28.50
2015,06,27,12,17,28.60
2015,06,27,12,18,28.80
2015,06,27,12,19,28.90
2015,06,27,12,20,28.90
2015,06,27,12,21,28.90
2015,06,27,12,22,29.10
2015,06,27,12,23,29.10
2015,06,27,12,24,29.20
2015,06,27,12,25,29.30
2015,06,27,12,26,29.40
2015,06,27,12,27,29.50
2015,06,27,12,28,29.50
2015,06,27,12,29,29.60
2015,06,27,12,30,29.60
2015,06,27,12,31,29.60
2015,06,27,12,32,29.60
2015,06,27,12,33,29.60
2015,06,27,12,34,29.70
2015,06,27,12,35,29.70
2015,06,27,12,36,29.70
2015,06,27,12,37,29.70
2015,06,27,12,38,29.60
2015,06,27,12,39,29.60
2015,06,27,12,40,29.60
2015,06,27,12,41,29.50
2015,06,27,12,42,29.40
2015,06,27,12,43,29.20
2015,06,27,12,44,29.10
2015,06,27,12,45,29.00
2015,06,27,12,46,28.90
2015,06,27,12,47,28.90
2015,06,27,12,48,28.80
2015,06,27,12,49,28.70
2015,06,27,12,50,28.70
2015,06,27,12,51,28.70
2015,06,27,12,52,28.70
2015,06,27,12,53,28.60
2015,06,27,12,54,28.70
2015,06,27,12,55,28.80
2015,06,27,12,56,28.80
2015,06,27,12,57,28.80
2015,06,27,12,58,28.90
2015,06,27,12,59,28.90
2015,06,27,13,00,28.90
2015,06,27,13,01,28.90
2015,06,27,13,02,28.90
2015,06,27,13,03,28.90
2015,06,27,13,04,28.90
2015,06,27,13,05,28.90
2015,06,27,13,06,28.90
2015,06,27,13,07,29.10
2015,06,27,13,08,29.20
2015,06,27,13,09,29.30
2015,06,27,13,10,29.40
2015,06,27,13,11,29.50
2015,06,27,13,12,29.50
2015,06,27,13,13,29.50
2015,06,27,13,14,29.60
2015,06,27,13,15,29.70
2015,06,27,13,16,29.80
2015,06,27,13,17,29.80
2015,06,27,13,18,29.90
2015,06,27,13,19,29.90
2015,06,27,13,20,29.90
2015,06,27,13,21,30.00
2015,06,27,13,22,30.10
2015,06,27,13,23,30.10
2015,06,27,13,24,30.10
2015,06,27,13,25,30.10
2015,06,27,13,26,30.20
2015,06,27,13,27,30.30
2015,06,27,13,28,30.40
2015,06,27,13,29,30.50
2015,06,27,13,30,30.60
2015,06,27,13,31,30.60
2015,06,27,13,32,30.70
2015,06,27,13,33,30.70
2015,06,27,13,34,30.70
2015,06,27,13,35,30.80
2015,06,27,13,36,30.80
2015,06,27,13,37,30.80
2015,06,27,13,38,30.80
2015,06,27,13,39,30.90
2015,06,27,13,40,30.90
2015,06,27,13,41,30.90
2015,06,27,13,42,30.90
2015,06,27,13,43,30.90
2015,06,27,13,44,31.00
2015,06,27,13,45,31.00
2015,06,27,13,46,31.10
2015,06,27,13,47,31.10
2015,06,27,13,48,31.20
2015,06,27,13,49,31.30
2015,06,27,13,50,31.30
2015,06,27,13,51,31.30
2015,06,27,13,52,31.40
2015,06,27,13,53,31.50
2015,06,27,13,54,31.60
2015,06,27,13,55,31.60
2015,06,27,13,56,31.70
2015,06,27,13,57,31.70
2015,06,27,13,58,31.60
2015,06,27,13,59,31.60
2015,06,27,14,00,31.60
2015,06,27,14,01,31.60
2015,06,27,14,02,31.60
2015,06,27,14,03,31.60
2015,06,27,14,04,31.60
2015,06,27,14,05,31.60
2015,06,27,14,06,31.60
2015,06,27,14,07,31.50
2015,06,27,14,08,31.40
2015,06,27,14,09,31.40
2015,06,27,14,10,31.30
2015,06,27,14,11,31.20
2015,06,27,14,12,31.10
2015,06,27,14,13,31.10
2015,06,27,14,14,31.00
2015,06,27,14,15,31.00
2015,06,27,14,16,31.00
2015,06,27,14,17,31.00
2015,06,27,14,18,31.00
2015,06,27,14,19,31.00
2015,06,27,14,20,31.00
2015,06,27,14,21,31.10
2015,06,27,14,22,31.10
2015,06,27,14,23,31.10
2015,06,27,14,24,31.10
2015,06,27,14,25,31.10
2015,06,27,14,26,31.20
2015,06,27,14,27,31.20
2015,06,27,14,28,31.30
2015,06,27,14,29,31.30
2015,06,27,14,30,31.40
2015,06,27,14,31,31.40
2015,06,27,14,32,31.60
2015,06,27,14,33,31.60
2015,06,27,14,34,31.60
2015,06,27,14,35,31.60
2015,06,27,14,36,31.40
2015,06,27,14,37,31.40
2015,06,27,14,38,31.30
2015,06,27,14,39,31.30
2015,06,27,14,40,31.30
2015,06,27,14,41,31.30
2015,06,27,14,42,31.30
2015,06,27,14,43,31.30
2015,06,27,14,44,31.30
2015,06,27,14,45,31.20
2015,06,27,14,46,31.10
2015,06,27,14,47,31.10
2015,06,27,14,48,31.00
2015,06,27,14,49,31.00
2015,06,27,14,50,30.90
2015,06,27,14,51,30.90
2015,06,27,14,52,30.90
2015,06,27,14,53,30.90
2015,06,27,14,54,31.00
2015,06,27,14,55,31.00
2015,06,27,14,56,31.00
2015,06,27,14,57,31.00
2015,06,27,14,58,31.00
2015,06,27,14,59,31.00
2015,06,27,15,00,30.90
2015,06,27,15,01,30.90
2015,06,27,15,02,30.90
2015,06,27,15,03,30.90
2015,06,27,15,04,30.90
2015,06,27,15,05,30.80
2015,06,27,15,06,30.90
2015,06,27,15,07,30.90
2015,06,27,15,08,31.00
2015,06,27,15,09,31.00
2015,06,27,15,10,31.00
2015,06,27,15,11,31.10
2015,06,27,15,12,31.20
2015,06,27,15,13,31.30
2015,06,27,15,14,31.40
2015,06,27,15,15,31.50
2015,06,27,15,16,31.60
2015,06,27,15,17,31.70
2015,06,27,15,18,31.70
2015,06,27,15,19,31.80
2015,06,27,15,20,31.80
2015,06,27,15,21,31.80
2015,06,27,15,22,31.80
2015,06,27,15,23,31.80
2015,06,27,15,24,31.80
2015,06,27,15,25,31.80
2015,06,27,15,26,31.90
2015,06,27,15,27,32.00
2015,06,27,15,28,32.10
2015,06,27,15,29,32.10
2015,06,27,15,30,32.10
2015,06,27,15,31,32.10
2015,06,27,15,32,32.10
2015,06,27,15,33,32.10
2015,06,27,15,34,32.00
2015,06,27,15,35,31.90
2015,06,27,15,36,31.90
2015,06,27,15,37,31.90
2015,06,27,15,38,31.80
2015,06,27,15,39,31.80
2015,06,27,15,40,31.80
2015,06,27,15,41,31.70
2015,06,27,15,42,31.60
2015,06,27,15,43,31.60
2015,06,27,15,44,31.60
2015,06,27,15,45,31.60
2015,06,27,15,46,31.60
2015,06,27,15,47,31.60
2015,06,27,15,48,31.60
2015,06,27,15,49,31.60
2015,06,27,15,50,31.60
2015,06,27,15,51,31.60
2015,06,27,15,52,31.40
2015,06,27,15,53,31.40
2015,06,27,15,54,31.40
2015,06,27,15,55,31.30
2015,06,27,15,56,31.30
2015,06,27,15,57,31.30
2015,06,27,15,58,31.30
2015,06,27,15,59,31.30
2015,06,27,16,00,31.30
2015,06,27,16,01,31.30
2015,06,27,16,02,31.30
2015,06,27,16,03,31.30
2015,06,27,16,04,31.30
2015,06,27,16,05,31.20
2015,06,27,16,06,31.20
2015,06,27,16,07,31.10
2015,06,27,16,08,31.10
2015,06,27,16,09,31.10
2015,06,27,16,10,31.10
2015,06,27,16,11,31.00
2015,06,27,16,12,30.90
2015,06,27,16,13,30.90
2015,06,27,16,14,30.80
2015,06,27,16,15,30.80
2015,06,27,16,16,30.70
2015,06,27,16,17,30.70
2015,06,27,16,18,30.70
2015,06,27,16,19,30.60
2015,06,27,16,20,30.60
2015,06,27,16,21,30.60
2015,06,27,16,22,30.60
2015,06,27,16,23,30.60
2015,06,27,16,24,30.50
2015,06,27,16,25,30.40
2015,06,27,16,26,30.40
2015,06,27,16,27,30.40
2015,06,27,16,28,30.40
2015,06,27,16,29,30.40
2015,06,27,16,30,30.40
2015,06,27,16,31,30.40
2015,06,27,16,32,30.40
2015,06,27,16,33,30.40
2015,06,27,16,34,30.40
2015,06,27,16,35,30.40
2015,06,27,16,36,30.40
2015,06,27,16,37,30.40
2015,06,27,16,38,30.40
2015,06,27,16,39,30.40
2015,06,27,16,40,30.40
2015,06,27,16,41,30.30
2015,06,27,16,42,30.30
2015,06,27,16,43,30.30
2015,06,27,16,44,30.30
2015,06,27,16,45,30.30
2015,06,27,16,46,30.20
2015,06,27,16,47,30.20
2015,06,27,16,48,30.20
2015,06,27,16,49,30.10
2015,06,27,16,50,30.10
2015,06,27,16,51,30.10
2015,06,27,16,52,30.10
2015,06,27,16,53,30.10
2015,06,27,16,54,30.10
2015,06,27,16,55,30.10
2015,06,27,16,56,30.10
2015,06,27,16,57,30.10
2015,06,27,16,58,30.10
2015,06,27,16,59,30.10
2015,06,27,17,00,30.10
2015,06,27,17,01,30.10
2015,06,27,17,02,30.10
2015,06,27,17,03,30.10
2015,06,27,17,04,30.10
2015,06,27,17,05,30.10
2015,06,27,17,06,30.10
2015,06,27,17,07,30.10
2015,06,27,17,08,30.10
2015,06,27,17,09,30.10
2015,06,27,17,10,30.10
2015,06,27,17,11,30.10
2015,06,27,17,12,30.10
2015,06,27,17,13,30.10
2015,06,27,17,14,30.10
2015,06,27,17,15,30.10
2015,06,27,17,16,30.10
2015,06,27,17,17,30.10
2015,06,27,17,18,30.10
2015,06,27,17,19,30.10